Regional Weather Roundup
Issued by NWS

Home | Current Version | Previous Version | Text Only | Print | Product List | Glossary On
Versions: 1 2 3 4 5 6 7 8 9 10 11 12 13 14 15 16 17 18 19 20 21 22 23 24 25 26 27 28 29 30 31 32 33 34 35 36 37 38 39 40 41 42 43 44 45 46 47 48 49 50
000
ASUS44 KOUN 221100
RWROK

WEATHER ROUNDUP FOR OKLAHOMA
NATIONAL WEATHER SERVICE NORMAN OK
500 AM CST MON DEC 22 2014

NOTE: "FAIR" INDICATES FEW OR NO CLOUDS BELOW 12,000 FEET WITH NO
      SIGNIFICANT WEATHER AND/OR OBSTRUCTIONS TO VISIBILITY.

OKZ001>007-009>012-014-015-017-221200-
NORTHWEST OKLAHOMA AND THE PANHANDLE

CITY           SKY/WX    TMP DP  RH WIND       PRES   REMARKS
GAGE           PTCLDY    39  38  96 W8        29.55F FOG     WCI  33
$$

OKZ016-021>023-033>039-044-045-221200-
SOUTHWEST OKLAHOMA

CITY           SKY/WX    TMP DP  RH WIND       PRES   REMARKS
LAWTON/REGL    CLEAR     42  41  96 E6        29.51F FOG
LAWTON/FT SILL FOG       41  41 100 E5        29.50F VSB 1/2
FREDERICK      FOG       36  35  96 N9        29.48S VSB 1/4 WCI  29
CLINTON        FOG       44  42  93 N10       29.55S VSB 1/2
HOBART         FOG       39  39 100 NW7       29.54R VSB 3/4 WCI  34
$$

OKZ018>020-024>031-221200-
CENTRAL OKLAHOMA

CITY           SKY/WX    TMP DP  RH WIND       PRES   REMARKS
OKLAHOMA CITY  CLOUDY    49  45  86 SE9       29.52F
OKC/WILEY POST CLOUDY    49  46  90 SE9       29.52F FOG
OKC/TINKER AFB CLOUDY    48  46  93 S10       29.53F
STILLWATER     CLOUDY    48  46  93 SE9       29.55F FOG
GUTHRIE        CLOUDY    49  46  90 SE6       29.54F
$$

OKZ008-013-054>072-221200-
NORTHEAST OKLAHOMA

CITY           SKY/WX    TMP DP  RH WIND       PRES   REMARKS
TULSA          DRIZZLE   46  46 100 SE9       29.61F FOG
TULSA/JONES    CLOUDY    46  45  96 S7        29.59F FOG
PONCA CITY     CLOUDY    47  45  93 SE9       29.56F FOG
BARTLESVILLE   CLOUDY    45  44  97 SE6       29.61F FOG
MUSKOGEE       CLOUDY    47  43  86 SE13      29.63F
$$

OKZ032-040>043-046>053-073>077-221200-
SOUTH CENTRAL/SOUTHEAST OKLAHOMA

CITY           SKY/WX    TMP DP  RH WIND       PRES   REMARKS
MCALESTER      CLOUDY    51  47  86 S8        29.60F
$$



USA.gov is the U.S. government's official web portal to all federal, state and local government web resources and services.